Flag for U.S.A. Weather past 2 weeks in Paradise, Nevada, U.S.A.

Now
72 °F

Sunny.


Feels Like: 73 °F
Forecast: 44 / 72 °F
Wind: 10 mph from East

Location: McCarran International Airport

Current Time: Mar 6, 2015 at 4:15:26 PM

Latest Report: Mar 6, 2015 at 3:56 PM


Visibility: 10 mi

Pressure: 30.12 "Hg

Humidity: 11%

Dew point: 14 °F

Location of ParadiseLocation

Historic Weather in Paradise — Graph

°F

Paradise temperature yesterday

Maximum temperature yesterday: 65 °F (at 3:56 PM)
Minimum temperature yesterday: 42 °F (at 3:56 AM)
Average temperature yesterday: 53 °F

Past Weeks' High & Low Weather Summary

 TemperatureHumidityPressure
High75 °F (Feb 20, 1:56 PM)97% (Feb 23, 3:56 AM)30.37 "Hg (Feb 23, 3:56 AM)
Low38 °F (Feb 23, 3:56 AM)10% (Feb 21, 1:56 PM)29.47 "Hg (Feb 27, 11:56 PM)
Average55 °F39%29.91 "Hg
* Reported Feb 19 2:56 PM — Mar 6 2:56 PM, Paradise, Weather by CustomWeather, © 2015

Note: Actual official high and low records may vary slightly from our data, if they occured in-between our weather recording intervals... More about our weather records

Advertising

Paradise weather history for previous 24 hours

 ConditionsComfort  
Time TempWeatherWind HumidityBarometerVisibility
2:56 PM
Fri, Mar 6
72 °FSunny.16 mph11%30.13 "Hg10 mi
1:56 PM70 °FSunny.3 mph13%30.15 "Hg10 mi
12:56 PM69 °FSunny.No wind14%30.19 "Hg10 mi
11:56 AM66 °FSunny.N/A18%30.23 "Hg10 mi
10:56 AM64 °FSunny.8 mph19%30.26 "Hg10 mi
9:56 AM60 °FSunny.No wind25%30.29 "Hg10 mi
8:56 AM57 °FSunny.No wind28%30.30 "Hg10 mi
7:56 AM54 °FSunny.5 mph34%30.29 "Hg10 mi
6:56 AM48 °FSunny.7 mph48%30.27 "Hg10 mi
5:56 AM45 °FClear.10 mph53%30.26 "Hg10 mi
4:56 AM45 °FClear.9 mph56%30.24 "Hg10 mi
3:56 AM45 °FClear.8 mph58%30.23 "Hg10 mi
2:56 AM46 °FClear.10 mph56%30.24 "Hg10 mi
1:56 AM48 °FClear.9 mph52%30.25 "Hg10 mi
12:56 AM48 °FClear.10 mph52%30.26 "Hg10 mi
11:56 PM
Thu, Mar 5
50 °FClear.7 mph48%30.26 "Hg10 mi
10:56 PM51 °FClear.9 mph46%30.27 "Hg10 mi
9:56 PM53 °FClear.7 mph41%30.27 "Hg10 mi
8:56 PM55 °FClear.7 mph40%30.27 "Hg10 mi
7:56 PM59 °FClear.6 mph26%30.27 "Hg10 mi
6:56 PM60 °FClear.6 mph24%30.27 "Hg10 mi
5:56 PM61 °FClear.No wind23%30.25 "Hg10 mi
4:56 PM63 °FSunny.No wind21%30.25 "Hg10 mi
Weather by CustomWeather, © 2015

See weather overviewHow to use our weather pages